Weather History for Mt. Pocono, PA

Change the Weather History Date:

Saturday, April 6, 2013

  Actual Average Record
Temperature  
Mean Temperature 36 °F 42 °F  
Max Temperature 47 °F 51 °F 80 °F (1942)
Min Temperature 25 °F 32 °F 5 °F (1914)
Degree Days  
Heating Degree Days 29 24  
Month to date heating degree days 181 148  
Since 1 July heating degree days 6053 6246  
Cooling Degree Days 0 0  
Month to date cooling degree days 0 0  
Year to date cooling degree days 0 0  
Moisture  
Dew Point 12 °F    
Average Humidity 44    
Maximum Humidity 68    
Minimum Humidity 19    
Precipitation  
Precipitation 0.00 in 0.15 in 2.10 in (1937)
Month to date precipitation T 1.00  
Year to date precipitation 6.86 10.09  
Sea Level Pressure  
Sea Level Pressure 30.21 in    
Wind  
Wind Speed 8 mph (WNW)    
Max Wind Speed 22 mph    
Max Gust Speed 31 mph    
Visibility 10 miles    
Events      
T = Trace of Precipitation, MM = Missing Value Source: NWS Daily Summary

Daily Weather History Graph

Daily Weather History Graph

Search for Another Location

Airport:

Trip Planner

Search our weather history database for the weather conditions in past years. The results will help you decide how hot, cold, wet, or windy it might be!

Date:

Astronomy

Apr. 06, 2013 Rise Set
Actual Time 6:36 AM EDT 7:32 PM EDT
Civil Twilight 6:08 AM EDT 8:00 PM EDT
Nautical Twilight 5:34 AM EDT 8:33 PM EDT
Astronomical Twilight 5:00 AM EDT 9:08 PM EDT
Moon 4:20 AM EDT (4/6) 3:56 PM EDT (4/6)
Length of Visible Light 13h 52m
Length of Day
12h 55m
Waning Crescent, 15% of the Moon is Illuminated
Apr 6
Waning Crescent
Apr 10
New
Apr 18
First Quarter
Apr 25
Full
May 2
Last Quarter

Hourly Weather History & Observations

Time (EDT) Temp. Windchill Dew Point Humidity Pressure Visibility Wind Dir Wind Speed Gust Speed Precip Events Conditions
12:53 AM 30.9 °F 22.8 °F 19.0 °F 61% 30.02 in 10.0 mi NW 9.2 mph 21.9 mph N/A   Clear
1:53 AM 30.0 °F 18.7 °F 17.1 °F 59% 30.04 in - NW 16.1 mph 31.1 mph N/A   Clear
2:53 AM 28.9 °F 18.2 °F 14.0 °F 54% 30.05 in - NW 13.8 mph 23.0 mph N/A   Clear
3:53 AM 27.0 °F 15.6 °F 12.0 °F 53% 30.08 in - NW 13.8 mph 23.0 mph N/A   Clear
4:53 AM 26.1 °F 13.1 °F 15.1 °F 63% 30.11 in - NNW 17.3 mph 23.0 mph N/A   Clear
5:53 AM 25.0 °F 14.8 °F 16.0 °F 69% 30.13 in - NNW 10.4 mph 23.0 mph N/A   Clear
6:53 AM 25.0 °F 18.1 °F 15.1 °F 66% 30.17 in - NNW 5.8 mph - N/A   Clear
7:53 AM 27.0 °F 19.5 °F 12.9 °F 56% 30.21 in 10.0 mi Variable 6.9 mph - N/A   Clear
8:53 AM 28.9 °F 17.7 °F 10.9 °F 47% 30.25 in 10.0 mi NNW 15.0 mph 23.0 mph N/A   Clear
9:53 AM 30.9 °F 21.2 °F 10.0 °F 42% 30.27 in 10.0 mi North 12.7 mph - N/A   Clear
10:53 AM 34.0 °F 26.6 °F 8.1 °F 34% 30.28 in 10.0 mi North 9.2 mph 17.3 mph N/A   Clear
11:53 AM 36.0 °F 29.6 °F 10.9 °F 36% 30.29 in 10.0 mi NW 8.1 mph - N/A   Clear
12:53 PM 37.0 °F 32.4 °F 8.1 °F 30% 30.29 in - Variable 5.8 mph 17.3 mph N/A   Clear
1:53 PM 39.0 °F - 9.0 °F 29% 30.27 in 10.0 mi Calm Calm - N/A   Clear
2:53 PM 42.1 °F 38.4 °F 10.0 °F 27% 30.26 in 10.0 mi Variable 5.8 mph - N/A   Clear
3:53 PM 46.0 °F 42.5 °F 8.1 °F 21% 30.23 in 10.0 mi NNW 6.9 mph - N/A   Clear
4:53 PM 46.0 °F 44.8 °F 6.1 °F 20% 30.25 in 10.0 mi Variable 3.5 mph - N/A   Clear
5:53 PM 46.0 °F 44.8 °F 8.1 °F 21% 30.25 in 10.0 mi West 3.5 mph - N/A   Clear
6:53 PM 45.0 °F 40.1 °F 9.0 °F 23% 30.26 in 10.0 mi SSW 9.2 mph - N/A   Clear
7:53 PM 42.1 °F 37.1 °F 10.9 °F 28% 30.26 in 10.0 mi South 8.1 mph - N/A   Clear
8:53 PM 39.0 °F 35.7 °F 12.9 °F 34% 30.28 in 10.0 mi SSW 4.6 mph - N/A   Clear
9:53 PM 39.0 °F 34.8 °F 12.0 °F 33% 30.27 in 10.0 mi South 5.8 mph - N/A   Clear
10:53 PM 37.9 °F 32.7 °F 12.0 °F 35% 30.26 in 10.0 mi South 6.9 mph - N/A   Clear
11:53 PM 37.9 °F 32.7 °F 12.9 °F 36% 30.26 in 10.0 mi South 6.9 mph - N/A   Clear